Location: Newark
(13.5236°S, 71.9791°W)
Time: 18:10:16
(UTC+00:00)

OTV 5 (USA 277) - Pass Details

Date: 23 July 2019
Orbit: 305 x 329 km, 54.5° (Epoch: 20 August)

Event Time Altitude Azimuth Distance (km) Brightness Sun altitude
Exits shadow 10:39:27 11° 237° (WSW) 1,176 ? -8.0°
Maximum altitude 10:41:48 32° 302° (WNW) 564 ? -7.5°
Drops below altitude 10° 10:44:12 10° 9° (N) 1,186 ? -7.0°
Sets 10:46:14 0° 19° (NNE) 2,002 ? -6.5°
